When you browse on this site, cookies collect data to enhance your experience and personalize the content and advertising you see.
Visit our Privacy Policy to learn more. By continuing to use the site, you agree to this use of cookies and data.
  • In Hungary
  • List of Countries
  • For 7 days
  • Water Temperature
  • Satellite Maps
  • Weather Map
  • News
  • Weather Widgets
  • user-avatar
    Login

    Hourly Weather Gajsin

    Today, 19 November, Monday

    Time Temperature Precipitation Wind Pressure Humidity
    00:00 -1°C° 0 mm 1 mps 749 mmHg 69%
    01:00 -1°C° 0 mm 1 mps 749 mmHg 70%
    02:00 -1°C° 0 mm 1 mps 749 mmHg 75%
    03:00 -3°C° 0 mm 2 mps 749 mmHg 75%
    04:00 -3°C° 0 mm 2 mps 749 mmHg 76%
    05:00 -3°C° 0 mm 2 mps 749 mmHg 76%
    06:00 -4°C° 0 mm 3 mps 749 mmHg 74%
    07:00 -4°C° 0 mm 3 mps 749 mmHg 73%
    08:00 -4°C° 0 mm 3 mps 749 mmHg 71%
    09:00 -3°C° 0 mm 4 mps 749 mmHg 71%
    10:00 -2°C° 0 mm 4 mps 749 mmHg 70%
    11:00 -2°C° 0 mm 4 mps 749 mmHg 69%
    12:00 -1°C° 0 mm 5 mps 749 mmHg 68%
    13:00 -1°C° 0 mm 5 mps 748 mmHg 68%
    14:00 -2°C° 0 mm 6 mps 748 mmHg 67%
    15:00 -1°C° 0 mm 5 mps 748 mmHg 68%
    16:00 -2°C° 0 mm 5 mps 748 mmHg 70%
    17:00 -2°C° 0 mm 5 mps 748 mmHg 71%
    18:00 -4°C° 0.3 mm 5 mps 748 mmHg 75%
    19:00 -4°C° 0.3 mm 5 mps 748 mmHg 80%
    20:00 -4°C° 0.3 mm 5 mps 748 mmHg 84%
    21:00 -4°C° 0.4 mm 5 mps 748 mmHg 86%
    22:00 -4°C° 0.4 mm 6 mps 748 mmHg 88%
    23:00 -5°C° 0.4 mm 6 mps 748 mmHg 90%

    Tomorrow, 20 November, Tuesday

    Time Temperature Precipitation Wind Pressure Humidity
    00:00 -5°C° 0.3 mm 6 mps 748 mmHg 90%
    01:00 -5°C° 0.3 mm 6 mps 748 mmHg 90%
    02:00 -5°C° 0.3 mm 6 mps 749 mmHg 90%
    03:00 -5°C° 0.1 mm 6 mps 749 mmHg 89%
    04:00 -5°C° 0.1 mm 5 mps 749 mmHg 89%
    05:00 -5°C° 0.1 mm 5 mps 749 mmHg 88%
    06:00 -5°C° 0 mm 5 mps 749 mmHg 87%
    07:00 -5°C° 0 mm 5 mps 749 mmHg 87%
    08:00 -4°C° 0 mm 4 mps 750 mmHg 86%
    09:00 -4°C° 0 mm 4 mps 750 mmHg 83%
    10:00 -3°C° 0 mm 4 mps 750 mmHg 81%
    11:00 -3°C° 0 mm 4 mps 750 mmHg 78%
    12:00 -2°C° 0 mm 4 mps 750 mmHg 78%
    13:00 -2°C° 0 mm 5 mps 750 mmHg 78%
    14:00 -2°C° 0 mm 5 mps 750 mmHg 79%
    15:00 -2°C° 0 mm 4 mps 750 mmHg 83%
    16:00 -2°C° 0 mm 3 mps 750 mmHg 87%
    17:00 -4°C° 0 mm 3 mps 750 mmHg 91%
    18:00 -4°C° 0 mm 3 mps 750 mmHg 92%
    19:00 -5°C° 0 mm 3 mps 751 mmHg 93%
    20:00 -5°C° 0 mm 4 mps 751 mmHg 93%
    21:00 -5°C° 0 mm 3 mps 751 mmHg 94%
    22:00 -5°C° 0 mm 3 mps 751 mmHg 94%
    23:00 -5°C° 0 mm 3 mps 751 mmHg 95%

    Day after tomorrow, 21 November, Wednesday

    Time Temperature Precipitation Wind Pressure Humidity
    00:00 -5°C° 0 mm 3 mps 751 mmHg 95%
    01:00 -6°C° 0 mm 3 mps 751 mmHg 95%
    02:00 -6°C° 0 mm 3 mps 751 mmHg 95%
    03:00 -6°C° 0 mm 3 mps 751 mmHg 95%
    04:00 -6°C° 0 mm 3 mps 750 mmHg 95%
    05:00 -6°C° 0 mm 3 mps 750 mmHg 95%
    06:00 -6°C° 0 mm 3 mps 751 mmHg 95%
    07:00 -6°C° 0 mm 3 mps 751 mmHg 95%
    08:00 -6°C° 0 mm 3 mps 751 mmHg 95%
    09:00 -5°C° 0 mm 3 mps 751 mmHg 92%
    10:00 -4°C° 0 mm 3 mps 751 mmHg 88%
    11:00 -3°C° 0 mm 4 mps 751 mmHg 84%
    12:00 -3°C° 0 mm 4 mps 751 mmHg 84%
    13:00 -1°C° 0 mm 3 mps 751 mmHg 83%
    14:00 -1°C° 0 mm 3 mps 751 mmHg 82%
    15:00 -2°C° 0 mm 3 mps 751 mmHg 85%
    16:00 -4°C° 0 mm 3 mps 751 mmHg 88%
    17:00 -3°C° 0 mm 2 mps 751 mmHg 91%
    18:00 -4°C° 0 mm 2 mps 751 mmHg 91%
    19:00 -4°C° 0 mm 2 mps 751 mmHg 92%
    20:00 -4°C° 0 mm 2 mps 751 mmHg 92%
    21:00 -4°C° 0 mm 2 mps 752 mmHg 92%
    22:00 -5°C° 0 mm 2 mps 752 mmHg 93%
    23:00 -5°C° 0 mm 2 mps 752 mmHg 93%

    22 November, Thursday

    Time Temperature Precipitation Wind Pressure Humidity
    00:00 -5°C° 0 mm 2 mps 752 mmHg 93%
    01:00 -5°C° 0 mm 2 mps 752 mmHg 94%
    02:00 -5°C° 0 mm 2 mps 752 mmHg 94%
    03:00 -5°C° 0 mm 2 mps 752 mmHg 94%
    04:00 -5°C° 0 mm 2 mps 752 mmHg 94%
    05:00 -5°C° 0 mm 2 mps 752 mmHg 94%
    06:00 -5°C° 0 mm 2 mps 752 mmHg 94%
    07:00 -5°C° 0 mm 2 mps 752 mmHg 94%
    08:00 -5°C° 0 mm 2 mps 752 mmHg 94%
    09:00 -4°C° 0 mm 2 mps 753 mmHg 90%
    10:00 -5°C° 0 mm 3 mps 753 mmHg 87%
    11:00 -4°C° 0 mm 3 mps 753 mmHg 84%
    12:00 -2°C° 0 mm 3 mps 753 mmHg 83%
    13:00 -2°C° 0 mm 3 mps 753 mmHg 81%
    14:00 -2°C° 0 mm 3 mps 752 mmHg 80%
    15:00 -4°C° 0 mm 3 mps 752 mmHg 82%
    16:00 -3°C° 0 mm 2 mps 752 mmHg 84%
    17:00 -4°C° 0 mm 2 mps 752 mmHg 87%
    18:00 -4°C° 0 mm 2 mps 753 mmHg 87%
    19:00 -5°C° 0 mm 2 mps 753 mmHg 87%
    20:00 -5°C° 0 mm 2 mps 753 mmHg 88%
    21:00 -5°C° 0 mm 2 mps 753 mmHg 88%
    22:00 -5°C° 0 mm 2 mps 753 mmHg 87%
    23:00 -5°C° 0 mm 2 mps 753 mmHg 87%

    23 November, Friday

    Time Temperature Precipitation Wind Pressure Humidity
    00:00 -5°C° 0 mm 2 mps 754 mmHg 87%
    01:00 -5°C° 0 mm 2 mps 754 mmHg 87%
    02:00 -5°C° 0 mm 2 mps 754 mmHg 86%
    03:00 -5°C° 0 mm 2 mps 754 mmHg 87%
    04:00 -6°C° 0 mm 2 mps 754 mmHg 87%
    05:00 -7°C° 0 mm 3 mps 754 mmHg 87%
    06:00 -7°C° 0 mm 3 mps 754 mmHg 88%
    07:00 -7°C° 0 mm 3 mps 755 mmHg 88%
    08:00 -7°C° 0 mm 3 mps 755 mmHg 89%
    09:00 -6°C° 0 mm 3 mps 756 mmHg 86%
    10:00 -5°C° 0 mm 3 mps 756 mmHg 83%
    11:00 -4°C° 0 mm 3 mps 756 mmHg 79%
    12:00 -2°C° 0 mm 2 mps 756 mmHg 79%
    13:00 -2°C° 0 mm 2 mps 756 mmHg 78%
    14:00 -2°C° 0 mm 2 mps 757 mmHg 77%
    15:00 -3°C° 0 mm 2 mps 757 mmHg 81%
    16:00 -3°C° 0 mm 2 mps 757 mmHg 85%
    17:00 -4°C° 0 mm 2 mps 757 mmHg 89%
    18:00 -5°C° 0 mm 2 mps 757 mmHg 90%
    19:00 -3°C° 0 mm 1 mps 757 mmHg 91%
    20:00 -3°C° 0 mm 1 mps 757 mmHg 92%
    21:00 -3°C° 0 mm 1 mps 758 mmHg 92%
    22:00 -3°C° 0 mm 1 mps 758 mmHg 93%
    23:00 -3°C° 0 mm 1 mps 758 mmHg 93%

    24 November, Saturday

    Time Temperature Precipitation Wind Pressure Humidity
    00:00 -3°C° 0 mm 1 mps 758 mmHg 93%
    01:00 -3°C° 0 mm 1 mps 757 mmHg 93%
    02:00 -3°C° 0 mm 1 mps 757 mmHg 93%
    03:00 -4°C° 0 mm 1 mps 757 mmHg 94%
    04:00 -4°C° 0 mm 1 mps 757 mmHg 94%
    05:00 -4°C° 0 mm 1 mps 757 mmHg 95%
    06:00 -4°C° 0 mm 1 mps 756 mmHg 95%
    07:00 -6°C° 0 mm 2 mps 756 mmHg 94%
    08:00 -6°C° 0 mm 2 mps 756 mmHg 94%
    09:00 -5°C° 0 mm 2 mps 756 mmHg 90%
    10:00 -4°C° 0 mm 2 mps 756 mmHg 85%
    11:00 -3°C° 0 mm 2 mps 756 mmHg 81%
    12:00 -2°C° 0 mm 2 mps 756 mmHg 79%
    13:00 -2°C° 0 mm 2 mps 755 mmHg 78%
    14:00 -2°C° 0 mm 3 mps 755 mmHg 77%
    15:00 -2°C° 0 mm 2 mps 754 mmHg 80%
    16:00 -3°C° 0 mm 2 mps 754 mmHg 84%
    17:00 -4°C° 0 mm 2 mps 754 mmHg 88%
    18:00 -5°C° 0 mm 2 mps 753 mmHg 87%
    19:00 -5°C° 0 mm 2 mps 753 mmHg 87%
    20:00 -6°C° 0 mm 3 mps 753 mmHg 87%
    21:00 -5°C° 0 mm 2 mps 753 mmHg 85%
    22:00 -5°C° 0 mm 2 mps 753 mmHg 84%
    23:00 -5°C° 0 mm 2 mps 752 mmHg 83%
    Show more